Retour au catalogue

STARLINK-34104

ActifCommunicationsVLEO
NORAD 64102·PAYLOAD·🇺🇸 United States

Lancé May 23, 2025 depuis Vandenberg Space Force Base

Loading…

Prochains Passages (prochaines 24 heures)

TLE

FraisSource: CelesTrak SupGP

Époque: Sep 15, 2026, 02:12 UTC

1 64102C 25110G   26258.09215278 -.00048745  00000+0 -14402-2 0  2589
2 64102  53.1581 223.2670 0001501  86.9546 274.5763 15.34414204    18

Suivez STARLINK-34104 en temps réel avec AllMySat

Download on the App Store